FREGAT DEB, 45944

Orbit data source: Space-Track

FREGAT DEB, 45944 is space debris in LEO originally from a launch on Mon, 18 Jul 2011 UTC launched from the Tyuratam Missile And Space Complex (TTMTR). Debris objects in space refer to the collection of defunct objects orbiting the Earth. Examples of debris include non-operational satellites, rocket bodies, and fragments generated from explosions, collisions, or faulty payload assembly.

Loading next visibility...
FREGAT DEB details
Identifier
45944, 2011-037EZ
Orbit
LEO
Last TLE update10 hours ago
Origin
Flag of CISVVKO VKS (CIS)
ManufacturerLavochkin
MissionSpacecraft
Bus & MotorUnknown
MassUnknown
Launch date (UTC)
2011-07-18 (13 years ago)
Launch vehicleUnknown
Launch site
Tyuratam Missile And Space Complex (TTMTR)
Object type
Payload
Rocket body
Debris
Shape & HBRUnknown
Radar Cross SectionMedium (>0.1 m² and <1 m²)

Expand to show TLE details & history

TLE from 10 hours ago
0 FREGAT DEB
1 45944U 11037EZ  24361.06308936  .00002345  00000-0  94541-2 0  9998
2 45944  51.1111 310.1233 2292472 132.0082 250.0023  9.62923905153595
Epoch: 2024-12-26T01:30Z
Definitive object data (Epoch: 2024-12-26T01:30:50.92Z)
Latitude-0.00006°
Longitude-167.63678°
Altitude4,064.535 km
Speed5.801 km/s
True Right ascension20h 40m 29s
True Declination0° 00' 00"
Sunlit
Object was in daylight at TLE epoch
Visualization TLE readout
Latitude-7.9955°
Longitude-174.87521°
Altitude4,440.733 km
Speed5.567 km/s
Apparent Right ascension20h 58m 32s
Apparent Declination-20° 31' 39"
Sunlit
Object is in daylight
Visualization observer readout
Local Sidereal Time10:44:21
Azimuth57.18° ENE
Elevation-60.237°
Doppler factor1
Orbital elements
Apogee altitude5,094.636 km
Perigee altitude815.43 km
Semi-major axis9,333.17 km
Eccentricity0.2292472
Inclination51.1111°
RAAN310.1233°
Arg. of periapsis132.0082°
True anomaly228.06537°
Mean anomaly250.0023°
Eccentric anomaly238.77066°
Mean motion2.40713 °/min
BSTAR0.0094541
Orbital period149.56 mins
Loading maneuver chart data...
Loading historical data...
Loading historical data...
Loading historical data...
Loading historical data...
Loading historical data...
Loading historical data...
Loading historical data...

FREGAT DEB Visibility forecast

Observer location: undefined°, undefined

Span
Click to sort rows by Start time (UTC) header in descending order
Start Az.
Max El. time (UTC)
Max El. Az.
Max El.
End time (UTC)
End Az.
28 mins2024-12-26 21:25:01.140Z187.723° SSW2024-12-26 21:43:01.140Z131.26° SE31.533°2024-12-26 21:53:01.140Z70.061° E
23 mins2024-12-27 00:06:01.140Z236.907° WSW2024-12-27 00:21:01.140Z297.427° NW44.457°2024-12-27 00:29:01.140Z52.416° ENE
13 mins2024-12-27 02:52:01.140Z289.478° WNW2024-12-27 03:00:01.140Z357.43° N30.657°2024-12-27 03:05:01.140Z56.967° ENE
9 mins2024-12-27 05:33:01.140Z312.625° NW2024-12-27 05:37:01.140Z4.491° NNE39.676°2024-12-27 05:42:01.140Z107.157° ESE
5 mins2024-12-27 08:11:01.140Z256.412° W2024-12-27 08:13:01.140Z228.838° WSW15.95°2024-12-27 08:16:01.140Z193.868° SSW
|